TimeGMT,TemperatureF,Dew PointF,Humidity,Sea Level PressureIn,VisibilityMPH,Wind Direction,Wind SpeedMPH,Gust SpeedMPH,PrecipitationIn,Events,Conditions,WindDirDegrees,DateUTC
2:50 AM,50,42,66,30.19,,WSW,12.7,,,,,250,2012-11-08 02:50:00
5:50 AM,49,44,75,30.14,,WSW,4.6,,,,,250,2012-11-08 05:50:00
7:50 AM,50.0,44.6,82,30.12,6.2,West,6.9,-,N/A,,Mostly Cloudy,270,2012-11-08 07:50:00
8:20 AM,51.8,46.4,82,30.12,6.2,West,9.2,-,N/A,,Mostly Cloudy,270,2012-11-08 08:20:00
8:50 AM,51,46,79,30.15,,West,11.5,,,,,260,2012-11-08 08:50:00
8:50 AM,51.8,46.4,82,30.12,6.2,West,13.8,-,N/A,,Scattered Clouds,260,2012-11-08 08:50:00
9:20 AM,51.8,48.2,88,30.12,6.2,West,12.7,-,N/A,,Mostly Cloudy,270,2012-11-08 09:20:00
9:50 AM,51.8,48.2,88,30.12,6.2,West,12.7,-,N/A,,Mostly Cloudy,270,2012-11-08 09:50:00
10:20 AM,51.8,46.4,82,30.12,6.2,West,13.8,-,N/A,,Mostly Cloudy,270,2012-11-08 10:20:00
10:50 AM,51.8,48.2,88,30.12,6.2,West,12.7,-,N/A,,Scattered Clouds,270,2012-11-08 10:50:00
11:20 AM,53.6,46.4,77,30.09,6.2,West,12.7,-,N/A,,Scattered Clouds,270,2012-11-08 11:20:00
11:50 AM,53,46,70,30.10,,WNW,11.5,,,,,290,2012-11-08 11:50:00
11:50 AM,53.6,46.4,77,30.09,6.2,WNW,11.5,-,N/A,,Scattered Clouds,290,2012-11-08 11:50:00
12:20 PM,55.4,44.6,67,30.09,6.2,WNW,12.7,-,N/A,,Partly Cloudy,290,2012-11-08 12:20:00
12:50 PM,55.4,42.8,63,30.09,6.2,WNW,11.5,-,N/A,,Scattered Clouds,290,2012-11-08 12:50:00
1:20 PM,53.6,42.8,67,30.09,6.2,West,12.7,-,N/A,,Partly Cloudy,280,2012-11-08 13:20:00
1:50 PM,55.4,42.8,63,30.09,6.2,West,9.2,-,N/A,,Scattered Clouds,280,2012-11-08 13:50:00
2:20 PM,53.6,42.8,67,30.09,6.2,WNW,9.2,-,N/A,,Scattered Clouds,300,2012-11-08 14:20:00
2:50 PM,53,43,58,30.09,,WNW,9.2,,,,,300,2012-11-08 14:50:00
2:50 PM,53.6,42.8,67,30.06,6.2,WNW,10.4,-,N/A,,Scattered Clouds,300,2012-11-08 14:50:00
3:20 PM,51.8,42.8,71,30.06,6.2,WNW,5.8,-,N/A,,Scattered Clouds,290,2012-11-08 15:20:00
3:50 PM,50.0,41.0,71,30.06,6.2,NW,6.9,-,N/A,,Scattered Clouds,310,2012-11-08 15:50:00
4:20 PM,50.0,42.8,76,30.06,6.2,WNW,6.9,-,N/A,,Mostly Cloudy,300,2012-11-08 16:20:00
4:50 PM,48.2,41.0,76,30.06,6.2,WNW,6.9,-,N/A,,Mostly Cloudy,290,2012-11-08 16:50:00
5:20 PM,48.2,41.0,76,30.06,-9999.0,West,3.5,-,N/A,,Clear,280,2012-11-08 17:20:00
5:50 PM,47,41,73,30.09,,West,4.6,,,,,280,2012-11-08 17:50:00
5:50 PM,48.2,41.0,76,30.06,-9999.0,West,3.5,-,N/A,,Clear,280,2012-11-08 17:50:00
6:20 PM,44.6,42.8,93,30.06,-9999.0,West,3.5,-,N/A,,Clear,270,2012-11-08 18:20:00
8:50 PM,41,39,92,30.09,,WNW,1.2,,,,,300,2012-11-08 20:50:00
11:50 PM,47,42,77,30.07,,SSW,2.3,,,,,200,2012-11-08 23:50:00